Погода в Ипохе

Малайзия     4°37′41″N   101°05′58″E
темп.,
°C
ветер,
м/с
пор.,
м/с
влажн.,
%
обл.,
%
осадки,
мм/ч
давл.,
гПа
погр.,
м
15 августа, пн
пн1523:00+24зсз009696 1.6 101113
02:00+23ссв119994 7.9 101049
05:00+22с119899 0.3 101025
08:00+22ссв1197100 0.4 101150
11:00+29всв0069100 0.0 1012594
14:00+29ю1271100 1.2 10101080
17:00+28ююв017614 2.6 1008712
20:00+25ююв0092100 3.1 100911
16 августа, вт
вт1623:00+23ссз0096100 0.3 101112
02:00+23сз0098100 3.1 101117
05:00+23ссв0198100 0.6 100921
08:00+23св1198100 1.9 101152
11:00+27с018374 0.8 1012304
14:00+34ссз1248100 0.8 10091831
17:00+27ююз118343 0.7 100619
20:00+24ююз1192100 4.4 100912
17 августа, ср
ср1723:00+23зсз0096100 0.0 101113
02:00+22св1199100 4.8 101055
05:00+22ссв119966 2.6 100954
08:00+22ссв119864 3.1 101150
11:00+27ссз018530 1.5 1012316
14:00+30ю226561 4.0 1009823
17:00+28зюз1275100 3.2 1007605
20:00+24зсз0093100 4.4 100911
18 августа, чт
чт1823:00+23с009684 0.1 101111
02:00+23с1198100 0.1 100921
05:00+22св019857 0.0 100813
08:00+23ссв119610 0.0 101052
11:00+29ю01667 0.0 1010797
14:00+32ю225040 0.0 10072059
17:00+30зюз226382 1.0 1005935
20:00+24ю009238 2.1 100811
19 августа, пт
пт1923:00+23ссв119699 0.0 100912
02:00+22с009791 0.3 100813
05:00+22ссв009877 0.1 100714
08:00+23св119697 0.1 100955
11:00+30ю136386 0.0 1010994
14:00+32ю235138 0.0 10071860
17:00+28зюз2373100 0.8 1005421
20:00+24зюз019368 2.2 100811